Location: Boiro
(42.6475°N, 8.8834°W)
Time: 09:11:08
(UTC+01:00)

SR - Pass Details

Date: 04 December 2021
Orbit: 583 x 872 km, 66.7° (Epoch: 16 January)

Event Time Altitude Azimuth Distance (km) Brightness Sun altitude
Rises 00:33:08 0° 197° (SSW) 3,022 - -66.8°
Reaches altitude 10° 00:35:33 10° 192° (SSW) 2,066 - -67.1°
Maximum altitude 00:40:03 53° 116° (ESE) 775 - -67.5°
Drops below altitude 10° 00:44:18 10° 40° (NE) 1,951 - -67.8°
Sets 00:46:31 0° 36° (NE) 2,836 - -68.0°
